Location: Klein M�hlingen
(51.9472°N, 11.7453°E)
Time: 03:39:13
(UTC+00:00)

Nauka - Pass Details

Date: 03 October 2021
Orbit: 417 x 423 km, 51.6° (Epoch: 26 October)

Event Time Altitude Azimuth Distance (km) Brightness Sun altitude
Rises 18:19:02 0° 281° (WNW) 2,367 ? -15.2°
Reaches altitude 10° 18:21:28 10° 265° (W) 1,501 ? -15.5°
Maximum altitude 18:24:01 20° 215° (SW) 1,028 ? -15.9°
Enters shadow 18:26:03 13° 172° (S) 1,344 ? -16.2°
